Regional Weather Roundup
Issued by NWS

Home | Current Version | Previous Version | Graphics & Text | Print | Product List | Glossary On
Versions: 1 2 3 4 5 6 7 8 9 10 11 12 13 14 15 16 17 18 19 20 21 22 23 24 25 26 27 28 29 30 31 32 33 34 35 36 37 38 39 40 41 42 43 44 45 46 47 48 49 50
467
ASUS43 KMKX 212321
RWRWI

WISCONSIN REGIONAL WEATHER ROUNDUP
NATIONAL WEATHER SERVICE MILWAUKEE/SULLIVAN WI
600 PM CDT FRI JUL 21 2017

NOTE: "FAIR" INDICATES FEW OR NO CLOUDS BELOW 12,000 FEET WITH NO
SIGNIFICANT WEATHER AND/OR OBSTRUCTIONS TO VISIBILITY.

WIZ001-002-006>008-014>016-023>028-220000-
NORTHWEST WISCONSIN

CITY           SKY/WX    TMP DP  RH WIND       PRES   REMARKS
SUPERIOR ARPT  NOT AVBL
ASHLAND        MOSUNNY   75  64  68 N8        29.85F
HAYWARD        CLOUDY    78  66  66 S13       29.87F HX  80
SIREN          CLOUDY    76  67  75 S8        29.86F
CUMBERLAND     CLOUDY    73  68  83 S7        29.88F
RICE LAKE      CLOUDY    75  67  74 S7        29.89F
CHETEK         CLOUDY    76  69  79 S6        29.88F
LADYSMITH      CLOUDY    77  67  71 S8        29.90F
EAU CLAIRE     CLOUDY    78  65  63 S12       29.87S HX  80
MENOMONIE      MOSUNNY   78  67  69 SE7       29.86F HX  80
NEW RICHMOND   MOSUNNY   79  67  66 S9        29.86F HX  81
OSCEOLA        PTSUNNY   81  69  65 S8        29.87F HX  84
$$

WIZ003>005-009-010-017-018-220000-
NORTH CENTRAL WISCONSIN

CITY           SKY/WX    TMP DP  RH WIND       PRES   REMARKS
MANITOWISH WTR SUNNY     81  64  55 S10       29.89F HX  82
ARBOR VITAE    MOSUNNY   82  65  55 S7        29.91S HX  84
WOODRUFF       MOSUNNY   82  65  55 S7        29.91S HX  84
RHINELANDER    CLOUDY    79  66  64 S8        29.94S HX  81
EAGLE RIVER    MOSUNNY   79  60  52 S5        29.92S HX  80
LAND O LAKES   MOSUNNY   80  60  50 SE6       29.92F HX  81
PHILLIPS       CLOUDY    77  67  71 SW8       29.89F
TOMAHAWK         N/A     78  67  68 CALM      29.92F HX  80
MEDFORD        PTSUNNY   75  66  73 S8        29.92R
MERRILL        CLOUDY    78  69  74 S8        29.91F
$$

WIZ029-030-035-036-043>047-220000-
CENTRAL WISCONSIN

CITY           SKY/WX    TMP DP  RH WIND       PRES   REMARKS
WAUSAU         CLOUDY    78  69  73 S8        29.90F HX  80
MOSINEE        PTSUNNY   75  72  88 S8        29.92F
MARSHFIELD     CLOUDY    75  67  76 S7        29.91F
STEVENS POINT  CLOUDY    73  71  96 S3        29.93S
WAUPACA        PTSUNNY   75  69  79 SE5       29.91F
WAUTOMA        LGT RAIN  73  71  93 SE7       29.92S
WISC RAPIDS    CLOUDY    74  71  91 S5        29.92F
CAMP DOUGLAS   CLOUDY    72  72 100 CALM      29.89F
$$

WIZ011>013-019>022-031-037>040-048>050-220000-
NORTHEAST WISCONSIN

CITY           SKY/WX    TMP DP  RH WIND       PRES   REMARKS
ANTIGO         CLOUDY    75  67  77 S9        29.93F
SHAWANO        CLOUDY    80  68  67 SW5       29.90F HX  82
OCONTO         CLOUDY    79  69  72 CALM      29.90F HX  81
STURGEON BAY     N/A     78  68  71 S6        29.91S HX  80
GREEN BAY      LGT RAIN  77  70  79 SW6       29.92S
MANITOWOC      LGT RAIN  77  69  76 CALM      29.94R
APPLETON       CLOUDY    73  63  68 VRB5      29.92F
CLINTONVILLE   PTSUNNY   79  63  57 S7        29.90F HX  80
OSHKOSH        LGT RAIN  73  66  78 S5        29.92F
$$

WIZ032>034-041-042-053>061-220000-
SOUTHWEST WISCONSIN

CITY           SKY/WX    TMP DP  RH WIND       PRES   REMARKS
LA CROSSE      CLOUDY    74  69  85 SE7       29.86F
SPARTA         CLOUDY    68  66  96 E3        29.89F
VIROQUA        CLOUDY    69  69 100 SE10      29.88F
BOSCOBEL       TSTM      71  69  93 VRB6      29.88F FOG
PRAIRIE DU CHI LGT RAIN  70  69  96 E7        29.84F
PLATTEVILLE    CLOUDY    73  73 100 NE10      29.88F
$$

WIZ056-057-062-063-064-067-068-220000-
SOUTH CENTRAL WISCONSIN

CITY           SKY/WX    TMP DP  RH WIND       PRES   REMARKS
REEDSBURG      HVY RAIN  70  70 100 S5        29.89F
BARABOO/DELLS  CLOUDY    71  69  94 S3        29.92F
LONE ROCK      CLOUDY    73  71  93 E8        29.88F
MINERAL POINT  LGT RAIN  72  72 100 E10       29.89F
MADISON        HVY RAIN  74  73  97 SE15      29.90F FOG
MIDDLETON      CLOUDY    73  73 100 SE9       29.90F
WATERTOWN      RAIN      69  69  99 E9        29.92F
MONROE         RAIN      73  72  94 E5        29.90F
JANESVILLE     CLOUDY    79  75  89 E6        29.89F HX  82
$$

WIZ051-052-058>065-066-070>072-220000-
SOUTHEAST WISCONSIN

CITY           SKY/WX    TMP DP  RH WIND       PRES   REMARKS
MILWAUKEE      LGT RAIN  75  71  87 CALM      29.94R
WAUKESHA       RAIN      73  72  94 NE6       29.97R FOG
MILWAUKEE/TIMM RAIN      72  64  78 CALM      29.96R
RACINE         CLOUDY    74  71  91 E6        29.95R
KENOSHA        CLOUDY    76  69  79 E9        29.93F
FOND DU LAC    LGT RAIN  73  64  73 S9        29.93F
SHEBOYGAN      LGT RAIN  75  74  96 S6        29.93F
WEST BEND      RAIN      72  70  94 S5        29.94F
JUNEAU         LGT RAIN  69  66  90 E3        29.95F
$$

LSZ147-162-220000-
LAKE SUPERIOR

STATION/POSITION TIME  TEMP    WIND        PRES    WAVE
                       AIR SEA DIR/SP/G            HT/PER
                 (UTC) (F)     (DEG/KT/KT) (MB)    (FT/S)
W MID LAKE BUOY  2250   54 49   80/ 10/ 10 1011.3F   0
DEVILS ISLAND    2300   63     100/ 14/ 15 1010.7F
SAXON HARBOR     2230   74      70/  3/  8 1010.5F
$$

LMZ867-665-643>646-220000-
LAKE MICHIGAN

STATION/POSITION TIME  TEMP    WIND        PRES    WAVE
                       AIR SEA DIR/SP/G            HT/PER
                 (UTC) (F)     (DEG/KT/KT) (MB)    (FT/S)
CHAMBERS ISLAND  2240   82     180/  3/  7 1011.9F
S GREEN BAY BUOY 2300   78 75  210/  4/  4 1012.7
N MID LAKE BUOY  2250   70 67  150/  6/  6 1013.7F   1
NORTHPORT PIER   2240   76     150/  6/  7 1012.5S
KEWAUNEE LAKESHO 2300   72     180/  4/  9 1012.7
SHEBOYGAN LAKESH 2300   74     170/  6/  6 1013.0S
PORT WASHINGTON  2240   75      CALM  /  6 1014.9R
ATWATER BUOY     2109   71 69  180/  4/  6 1015.1
MILWAUKEE LAKESH 2300   72     310/  5/  5   N/A
S MID LAKE BUOY  2250   73 73   60/ 10/ 10 1013.1F   0
KENOSHA   LAKESH 2300   74     120/  7/ 10 1012.9
$$

TC  - TEMPERATURE IN CELSIUS
VSB - VISIBILITY IN STATUTE MILES
WCI - WIND CHILL INDEX
HX  - HEAT INDEX





USA.gov is the U.S. government's official web portal to all federal, state and local government web resources and services.